Weather History for Whitefield, NH

Change the Weather History Date:

Saturday, January 18, 2014

  Actual Average Record
Temperature  
Mean Temperature 26 °F -  
Max Temperature 37 °F 20 °F 51 °F (2006)
Min Temperature 16 °F 0 °F -27 °F (2003)
Degree Days  
Heating Degree Days 38    
Moisture  
Dew Point 18 °F    
Average Humidity 76    
Maximum Humidity 89    
Minimum Humidity 48    
Precipitation  
Precipitation 0.00 in - - ()
Sea Level Pressure  
Sea Level Pressure 29.78 in    
Wind  
Wind Speed 2 mph (East)    
Max Wind Speed 10 mph    
Max Gust Speed -    
Visibility 9 miles    
Events      
Averages and records for this station are not official NWS values.
T = Trace of Precipitation, MM = Missing Value Source: NWS Daily Summary

Daily Weather History Graph

Daily Weather History Graph

Search for Another Location

Airport:

Trip Planner

Search our weather history database for the weather conditions in past years. The results will help you decide how hot, cold, wet, or windy it might be!

Date:

Astronomy

Jan. 18, 2014 Rise Set
Actual Time 7:17 AM EST 4:36 PM EST
Civil Twilight 6:44 AM EST 5:08 PM EST
Nautical Twilight 6:09 AM EST 5:44 PM EST
Astronomical Twilight 5:34 AM EST 6:19 PM EST
Moon 7:23 PM EST (1/18) 8:08 AM EST (1/18)
Length of Visible Light 10h 23m
Length of Day
9h 19m
Waning Gibbous, 94% of the Moon is Illuminated
Jan 18
Waning Gibbous
Jan 24
Last Quarter
Jan 30
New
Feb 6
First Quarter
Feb 14
Full

Hourly Weather History & Observations

Time (EST) Temp. Windchill Dew Point Humidity Pressure Visibility Wind Dir Wind Speed Gust Speed Precip Events Conditions
12:39 AM 21.9 °F - 19.0 °F 89% 29.85 in 1.8 mi Calm Calm - N/A   Clear
12:52 AM 21.0 °F - 18.0 °F 88% 29.90 in 5.0 mi Calm Calm - N/A   Clear
1:02 AM 21.9 °F - 18.0 °F 85% 29.85 in 3.0 mi Calm Calm - N/A   Scattered Clouds
1:52 AM 19.9 °F - 16.0 °F 85% 29.90 in 9.0 mi Calm Calm - N/A   Clear
2:52 AM 18.0 °F - 15.1 °F 88% 29.90 in 9.0 mi Calm Calm - N/A   Clear
3:52 AM 16.0 °F - 12.9 °F 88% 29.89 in 10.0 mi Calm Calm - N/A   Clear
4:12 AM 17.1 °F - 12.9 °F 84% 29.84 in 9.0 mi Calm Calm - N/A   Partly Cloudy
4:52 AM 16.0 °F - 12.0 °F 84% 29.89 in 10.0 mi Calm Calm - N/A   Clear
5:52 AM 16.0 °F - 12.0 °F 84% 29.87 in 10.0 mi Calm Calm - 0.00 in   Clear
6:52 AM 17.1 °F - 12.9 °F 84% 29.86 in 10.0 mi Calm Calm - N/A   Clear
7:52 AM 17.1 °F 11.7 °F 12.9 °F 84% 29.86 in 10.0 mi ESE 3.5 mph - N/A   Clear
8:52 AM 21.0 °F - 18.0 °F 88% 29.83 in 7.0 mi Calm Calm - N/A   Clear
9:52 AM 25.0 °F - 21.9 °F 88% 29.82 in 8.0 mi Calm Calm - N/A   Clear
10:52 AM 28.9 °F - 26.1 °F 89% 29.81 in 9.0 mi Calm Calm - N/A   Clear
11:52 AM 35.1 °F 31.0 °F 26.1 °F 70% 29.76 in 10.0 mi NE 4.6 mph - N/A   Partly Cloudy
12:52 PM 37.9 °F 34.4 °F 23.0 °F 55% 29.71 in 10.0 mi East 4.6 mph - N/A   Clear
1:52 PM 37.9 °F 33.5 °F 19.9 °F 48% 29.68 in 10.0 mi ENE 5.8 mph - N/A   Partly Cloudy
2:52 PM 37.0 °F 31.6 °F 19.0 °F 48% 29.68 in 10.0 mi East 6.9 mph - N/A   Scattered Clouds
3:52 PM 35.1 °F 28.6 °F 21.0 °F 57% 29.69 in 10.0 mi East 8.1 mph - N/A   Clear
4:52 PM 33.1 °F 28.7 °F 19.9 °F 59% 29.69 in 10.0 mi East 4.6 mph - N/A   Mostly Cloudy
5:52 PM 33.1 °F 25.5 °F 19.9 °F 59% 29.69 in 10.0 mi East 9.2 mph - N/A   Scattered Clouds
6:52 PM 32.0 °F 23.6 °F 21.0 °F 64% 29.69 in 10.0 mi East 10.4 mph - N/A   Overcast
7:52 PM 30.9 °F 25.2 °F 21.0 °F 67% 29.69 in 10.0 mi East 5.8 mph - N/A   Overcast
8:52 PM 28.9 °F 23.9 °F 19.9 °F 69% 29.68 in 10.0 mi ENE 4.6 mph - N/A   Partly Cloudy
9:52 PM 26.1 °F - 19.9 °F 78% 29.69 in 10.0 mi Calm Calm - N/A   Clear
10:52 PM 24.1 °F - 19.9 °F 84% 29.69 in 10.0 mi Calm Calm - N/A   Overcast
11:52 PM 23.0 °F - 19.9 °F 88% 29.67 in 10.0 mi Calm Calm - N/A   Overcast